Flag Weather past 2 weeks in Charlottesville, Virginia, U.S.A.

Now
44 °F

Overcast.


Feels Like: 43 °F
Forecast: 32 / 48 °F
Wind: 3 mph from North

Location: Charlottesville-Albemarle Airport

Current Time: Nov 26, 2014 at 2:03:37 AM

Latest Report: Nov 26, 2014 at 12:53 AM


Visibility: 10 mi

Pressure: 30.12 "Hg

Humidity: 73%

Dew point: 36 °F

Location of CharlottesvilleLocation

Historic Weather in Charlottesville — Graph

°F

Charlottesville temperature yesterday

Maximum temperature yesterday: 62 °F (at 3:53 AM)
Minimum temperature yesterday: 46 °F (at 10:53 PM)
Average temperature yesterday: 54 °F

Past Weeks' High & Low Weather Summary

 TemperatureHumidityPressure
High70 °F (Nov 11, 1:53 PM)100% (Nov 24, 12:53 AM)30.55 "Hg (Nov 24, 12:53 AM)
Low18 °F (Nov 19, 5:53 AM)21% (Nov 21, 2:53 PM)29.56 "Hg (Nov 17, 3:53 PM)
Average42 °F54%30.10 "Hg
* Reported Nov 11 12:53 AM — Nov 26 12:53 AM, Charlottesville, Weather by CustomWeather, © 2014

Note: Actual official high and low records may vary slightly from our data, if they occured in-between our weather recording intervals... More about our weather records

Advertising

Charlottesville weather history for previous 24 hours

 ConditionsComfort  
Time TempWeatherWind HumidityBarometerVisibility
12:53 AM
Nov 26
44 °FOvercast.3 mph73%30.12 "Hg10 mi
11:53 PM
Nov 25
46 °FPassing clouds.No wind61%30.12 "Hg10 mi
10:53 PM46 °FClear.3 mph61%30.12 "Hg10 mi
9:53 PM47 °FClear.No wind56%30.09 "Hg10 mi
8:53 PM47 °FClear.3 mph56%30.10 "Hg10 mi
7:53 PM49 °FClear.No wind50%30.09 "Hg10 mi
6:53 PM51 °FClear.6 mph48%30.09 "Hg10 mi
5:53 PM52 °FClear.3 mph38%30.06 "Hg10 mi
4:53 PM56 °FSunny.No wind29%30.02 "Hg10 mi
3:53 PM57 °FSunny.No wind33%30.01 "Hg10 mi
2:53 PM58 °FSunny.3 mph32%30.01 "Hg10 mi
1:53 PM57 °FSunny.5 mph33%30.01 "Hg10 mi
12:53 PM55 °FSunny.5 mph40%30.05 "Hg10 mi
11:53 AM54 °FSunny.3 mph41%30.05 "Hg10 mi
10:53 AM54 °FSunny.3 mph43%30.05 "Hg10 mi
9:53 AM55 °FSunny.3 mph45%30.04 "Hg10 mi
8:53 AM54 °FScattered clouds.No wind53%30.00 "Hg10 mi
7:53 AM55 °FSunny.3 mph51%30.00 "Hg10 mi
6:53 AM55 °FClear.3 mph51%29.96 "Hg10 mi
5:53 AM57 °FClear.5 mph49%29.92 "Hg10 mi
4:53 AM58 °FClear.8 mph47%29.90 "Hg10 mi
3:53 AM62 °FClear.No wind41%29.86 "Hg10 mi
2:53 AM61 °FClear.5 mph44%29.85 "Hg10 mi
Weather by CustomWeather, © 2014

See weather overviewHow to use our weather pages